Location: Guferjoch
(46.7462°N, 8.4506°E)
Time: 13:23:36
(UTC+00:00)

Cosmos 1536 - Pass Details

Date: 14 July 2020
Orbit: 539 x 560 km, 82.5° (Epoch: 07 August)

Event Time Altitude Azimuth Distance (km) Brightness Sun altitude
Exits shadow 02:03:02 21° 199° (SSW) 1,263 4.1 -13.6°
Maximum altitude 02:05:38 71° 280° (W) 595 2.8 -13.4°
Drops below altitude 10° 02:09:41 10° 5° (N) 1,848 6.4 -12.9°
Sets 02:11:52 0° 8° (N) 2,745 7.5 -12.7°
